Weather History for KBMI - March, 2013

Change the Weather History Date:

Saturday, March 23, 2013

  Actual Average Record
Temperature  
Mean Temperature 38 °F -  
Max Temperature 47 °F 55 °F 70 °F (2009)
Min Temperature 29 °F 41 °F 20 °F (2014)
Degree Days  
Heating Degree Days 28    
Moisture  
Dew Point 23 °F    
Average Humidity 60    
Maximum Humidity 79    
Minimum Humidity 38    
Precipitation  
Precipitation 0.00 in - - ()
Sea Level Pressure  
Sea Level Pressure 30.06 in    
Wind  
Wind Speed 9 mph (ENE)    
Max Wind Speed 17 mph    
Max Gust Speed -    
Visibility 10 miles    
Events      
Averages and records for this station are not official NWS values.
T = Trace of Precipitation, MM = Missing Value Source: NWS Daily Summary

Daily Weather History Graph

Daily Weather History Graph

Search for Another Location

Airport or City:

Trip Planner

Search our weather history database for the weather conditions in past years. The results will help you decide how hot, cold, wet, or windy it might be!

Date:

Astronomy

Mar. 23, 2013 Rise Set
Actual Time 6:53 AM CDT 7:11 PM CDT
Civil Twilight 6:26 AM CDT 7:38 PM CDT
Nautical Twilight 5:54 AM CDT 8:10 PM CDT
Astronomical Twilight 5:21 AM CDT 8:43 PM CDT
Moon 3:37 PM CDT (3/23) 4:30 AM CDT (3/23)
Length of Visible Light 13h 12m
Length of Day
12h 17m
Waxing Gibbous, 85% of the Moon is Illuminated
Mar 23
Waxing Gibbous
Mar 27
Full
Apr 2
Last Quarter
Apr 10
New
Apr 18
First Quarter

Hourly Weather History & Observations

Time (CDT) Temp. Windchill Dew Point Humidity Pressure Visibility Wind Dir Wind Speed Gust Speed Precip Events Conditions
12:56 AM 32.9 °F 25.9 °F 22.1 °F 65% 30.09 in 10.0 mi ENE 8.1 mph - N/A   Overcast
1:56 AM 32.0 °F 26.4 °F 23.0 °F 69% 30.10 in 10.0 mi East 5.8 mph - N/A   Mostly Cloudy
2:56 AM 31.1 °F 24.5 °F 23.0 °F 72% 30.08 in 10.0 mi ENE 6.9 mph - N/A   Overcast
3:56 AM 30.0 °F 22.4 °F 24.1 °F 79% 30.08 in 10.0 mi NNE 8.1 mph - N/A   Mostly Cloudy
4:56 AM 30.0 °F 24.1 °F 24.1 °F 79% 30.08 in 10.0 mi NNE 5.8 mph - N/A   Overcast
5:56 AM 30.0 °F 22.4 °F 24.1 °F 79% 30.08 in 9.0 mi NE 8.1 mph - N/A   Overcast
6:56 AM 29.1 °F 22.1 °F 23.0 °F 78% 30.10 in 10.0 mi NE 6.9 mph - N/A   Overcast
7:56 AM 31.1 °F 23.7 °F 23.0 °F 72% 30.11 in 10.0 mi East 8.1 mph - N/A   Partly Cloudy
8:56 AM 34.0 °F 28.0 °F 23.0 °F 64% 30.13 in 10.0 mi ENE 6.9 mph - N/A   Mostly Cloudy
9:56 AM 37.9 °F 30.9 °F 23.0 °F 55% 30.13 in 10.0 mi ENE 10.4 mph - N/A   Partly Cloudy
10:56 AM 41.0 °F 34.7 °F 22.1 °F 47% 30.12 in 10.0 mi ENE 10.4 mph - N/A   Clear
11:56 AM 43.0 °F 37.7 °F 22.1 °F 44% 30.11 in 10.0 mi NE 9.2 mph - N/A   Clear
12:56 PM 45.0 °F - 21.0 °F 39% 30.10 in 10.0 mi Calm Calm - N/A   Clear
1:56 PM 46.9 °F - 22.1 °F 38% 30.08 in 10.0 mi East 5.8 mph - N/A   Clear
2:56 PM 46.9 °F - 23.0 °F 39% 30.06 in 10.0 mi NE 9.2 mph - N/A   Clear
3:56 PM 46.9 °F - 24.1 °F 41% 30.04 in 10.0 mi NE 12.7 mph - N/A   Clear
4:56 PM 46.9 °F - 24.1 °F 41% 30.00 in 10.0 mi NE 16.1 mph - N/A   Clear
5:56 PM 43.9 °F 37.2 °F 22.1 °F 42% 30.01 in 10.0 mi ENE 13.8 mph - N/A   Clear
6:56 PM 41.0 °F 33.5 °F 25.2 °F 53% 30.00 in 10.0 mi NE 13.8 mph - N/A   Clear
7:56 PM 36.0 °F 28.0 °F 25.2 °F 65% 30.00 in 10.0 mi ENE 11.5 mph - N/A   Clear
8:56 PM 34.0 °F 23.8 °F 24.1 °F 67% 30.01 in 10.0 mi ENE 16.1 mph - N/A   Clear
9:56 PM 32.0 °F 21.2 °F 24.1 °F 73% 30.01 in 10.0 mi ENE 16.1 mph - N/A   Scattered Clouds
10:56 PM 31.1 °F 20.1 °F 24.1 °F 75% 30.01 in 10.0 mi ENE 16.1 mph - N/A   Clear
11:56 PM 31.1 °F 19.7 °F 23.0 °F 72% 30.00 in 10.0 mi ENE 17.3 mph - N/A   Clear